Project,Study,Ord_Occ,Event_Num,Cast_ID,Date_Time_UTC,Date_Time_PST,Lat_Dec,Lon_Dec,Sta_ID,Line,Sta,Depth,Pressure,PrQ,Temp1,Temp1Q,Temp2,Temp2Q,TempAve,Salt1,Salt1Q,Salt1_Corr,Salt2,Salt2Q,Salt2_Corr,SaltAve_Corr,Ox1,Ox1Q,Ox1_CruiseCorr,Ox1_StaCorr,Ox2,Ox2Q,Ox2_CruiseCorr,Ox2_StaCorr,OxAve_StaCorr,Ox1uM,Ox1uM_CruiseCorr,Ox1uM_StaCorr,Ox2uM,Ox2uM_CruiseCorr,Ox2uM_StaCorr,OxAveuM_StaCorr,FluorV,FluorQ,EstChl_CruiseCorr,EstChl_StaCorr,ISUSV,ISUSQ,EstNO3_CruiseCorr,EstNO3_StaCorr,SigThetaTS1,SigThetaTS1Q,SigThetaTS2,SigThetaTS2Q,BAT,XMiss,TransQ,pH,pHQ,SPAR,SPARQ,PAR,PARQ,PoT1,PoT2,DynHt,SVA,OxSat1,OxSat2,BTL_Depth,BTL_Temp,SaltB,OxB,OxBuM,Chl-a,Phaeo,NO3,NO2,NH4,PO4,SIL
CalCOFI,2101RL,007,,2101_007u,17-Jan-2021 03:12:59,16-Jan-2021 19:12:59,32.51062,-118.20844,093.3 040.0,093.3,040.0,517.000,521.306,,6.2678,,6.2703,,6.2691,34.3030,,34.3088,34.2962,,34.2982,34.3035,0.3180,,0.3327,0.8748,0.3285,,0.3469,0.8929,0.8839,13.827,14.7343,38.2032,14.284,15.8283,38.9927,38.5980,0.0320,,,, ,, , ,26.9736,,26.9679,,0.6785,84.3970,,,,1.8474E+00,,1.0000E-12,,6.2213,6.2238,0.8823,114.914,4.610,4.762,,,,,,,,,,,,
CalCOFI,2101RL,007,,2101_007u,17-Jan-2021 03:13:01,16-Jan-2021 19:13:01,32.51062,-118.20844,093.3 040.0,093.3,040.0,516.000,520.296,,6.2789,,6.2813,,6.2801,34.3032,,34.3090,34.2961,,34.2981,34.3036,0.3187,,0.3335,0.8753,0.3277,,0.3461,0.8924,0.8839,13.860,14.7688,38.2253,14.250,15.8649,38.9698,38.5976,0.0323,,,, ,, , ,26.9723,,26.9664,,0.6782,84.4032,,,,1.8474E+00,,1.0000E-12,,6.2324,6.2348,0.8823,115.041,4.622,4.752,,,,,,,,,,,,
CalCOFI,2101RL,007,,2101_007u,17-Jan-2021 03:13:10,16-Jan-2021 19:13:10,32.51061,-118.20841,093.3 040.0,093.3,040.0,515.000,519.286,,6.2887,,6.2882,,6.2885,34.3025,,34.3083,34.2955,,34.2975,34.3029,0.3213,,0.3362,0.8770,0.3298,,0.3483,0.8938,0.8854,13.970,14.8840,38.2992,14.341,15.9873,39.0311,38.6652,0.0321,,,, ,, , ,26.9705,,26.9651,,0.6783,84.4023,,,,1.8474E+00,,1.0000E-12,,6.2423,6.2418,0.8829,115.204,4.660,4.783,515,,34.2960,0.375,16.34,,,,,,,
CalCOFI,2101RL,007,,2101_007u,17-Jan-2021 03:14:12,16-Jan-2021 19:14:12,32.51051,-118.20823,093.3 040.0,093.3,040.0,514.000,518.277,,6.2934,,6.2943,,6.2939,34.3020,,34.3078,34.2947,,34.2967,34.3023,0.3220,,0.3369,0.8775,0.3328,,0.3515,0.8958,0.8867,14.003,14.9185,38.3213,14.472,16.0240,39.1192,38.7203,0.0322,,,, ,, , ,26.9695,,26.9636,,0.6783,84.4023,,,,1.8474E+00,,1.0000E-12,,6.2470,6.2479,0.8876,115.294,4.671,4.827,,,,,,,,,,,,
CalCOFI,2101RL,007,,2101_007u,17-Jan-2021 03:14:57,16-Jan-2021 19:14:57,32.51046,-118.20812,093.3 040.0,093.3,040.0,513.000,517.267,,6.2915,,6.2909,,6.2912,34.3022,,34.3080,34.2951,,34.2971,34.3026,0.3232,,0.3382,0.8783,0.3232,,0.3413,0.8893,0.8838,14.057,14.9751,38.3576,14.056,16.0840,38.8392,38.5984,0.0326,,,, ,, , ,26.9699,,26.9643,,0.6781,84.4064,,,,1.8474E+00,,1.0000E-12,,6.2452,6.2447,0.8907,115.236,4.689,4.688,,,,,,,,,,,,
CalCOFI,2101RL,007,,2101_007u,17-Jan-2021 03:14:58,16-Jan-2021 19:14:58,32.51046,-118.20812,093.3 040.0,093.3,040.0,512.000,516.258,,6.2989,,6.2948,,6.2969,34.3012,,34.3070,34.2946,,34.2966,34.3018,0.3323,,0.3477,0.8844,0.3320,,0.3506,0.8953,0.8899,14.450,15.3865,38.6214,14.437,16.5210,39.0957,38.8586,0.0322,,,, ,, , ,26.9681,,26.9635,,0.6784,84.3992,,,,1.8474E+00,,1.0000E-12,,6.2528,6.2486,0.8907,115.400,4.821,4.816,,,,,,,,,,,,
CalCOFI,2101RL,007,,2101_007u,17-Jan-2021 03:15:00,16-Jan-2021 19:15:00,32.51045,-118.20811,093.3 040.0,093.3,040.0,511.000,515.248,,6.3071,,6.3048,,6.3060,34.2999,,34.3057,34.2933,,34.2953,34.3005,0.3333,,0.3487,0.8851,0.3334,,0.3521,0.8962,0.8907,14.493,15.4315,38.6502,14.499,16.5689,39.1374,38.8938,0.0321,,,, ,, , ,26.9660,,26.9611,,0.6781,84.4072,,,,1.8474E+00,,1.0000E-12,,6.2610,6.2587,0.8907,115.594,4.836,4.837,,,,,,,,,,,,
CalCOFI,2101RL,007,,2101_007u,17-Jan-2021 03:15:01,16-Jan-2021 19:15:01,32.51044,-118.20810,093.3 040.0,093.3,040.0,510.000,514.239,,6.3088,,6.3093,,6.3091,34.2990,,34.3048,34.2920,,34.2940,34.2994,0.3288,,0.3440,0.8821,0.3390,,0.3581,0.9000,0.8911,14.299,15.2284,38.5200,14.743,16.3531,39.3017,38.9109,0.0318,,,, ,, , ,26.9651,,26.9595,,0.6786,84.3955,,,,1.8474E+00,,1.0000E-12,,6.2627,6.2633,0.8907,115.664,4.771,4.919,,,,,,,,,,,,
CalCOFI,2101RL,007,,2101_007u,17-Jan-2021 03:15:01,16-Jan-2021 19:15:01,32.51044,-118.20810,093.3 040.0,093.3,040.0,509.000,513.229,,6.3098,,6.3102,,6.3100,34.2986,,34.3044,34.2917,,34.2937,34.2991,0.3323,,0.3477,0.8844,0.3450,,0.3644,0.9040,0.8942,14.454,15.3906,38.6240,15.002,16.5255,39.4760,39.0500,0.0328,,,, ,, , ,26.9646,,26.9591,,0.6786,84.3957,,,,1.8474E+00,,1.0000E-12,,6.2638,6.2643,0.8907,115.698,4.823,5.006,,,,,,,,,,,,
CalCOFI,2101RL,007,,2101_007u,17-Jan-2021 03:15:02,16-Jan-2021 19:15:02,32.51044,-118.20810,093.3 040.0,093.3,040.0,508.000,512.219,,6.3112,,6.3111,,6.3112,34.2983,,34.3041,34.2916,,34.2936,34.2989,0.3371,,0.3527,0.8876,0.3340,,0.3527,0.8966,0.8921,14.661,15.6073,38.7630,14.523,16.7557,39.1536,38.9583,0.0322,,,, ,, , ,26.9642,,26.9589,,0.6786,84.3957,,,,1.8474E+00,,1.0000E-12,,6.2653,6.2652,0.8907,115.720,4.893,4.846,,,,,,,,,,,,
CalCOFI,2101RL,007,,2101_007u,17-Jan-2021 03:15:03,16-Jan-2021 19:15:03,32.51044,-118.20810,093.3 040.0,093.3,040.0,507.000,511.210,,6.3120,,6.3123,,6.3122,34.2982,,34.3040,34.2915,,34.2935,34.2988,0.3369,,0.3525,0.8875,0.3287,,0.3471,0.8930,0.8903,14.650,15.5958,38.7556,14.296,16.7434,39.0008,38.8782,0.0316,,,, ,, , ,26.9640,,26.9586,,0.6786,84.3957,,,,1.8474E+00,,1.0000E-12,,6.2663,6.2666,0.8907,115.730,4.889,4.771,,,,,,,,,,,,
CalCOFI,2101RL,007,,2101_007u,17-Jan-2021 03:15:03,16-Jan-2021 19:15:03,32.51044,-118.20808,093.3 040.0,093.3,040.0,506.000,510.200,,6.3126,,6.3129,,6.3128,34.2982,,34.3040,34.2915,,34.2935,34.2988,0.3326,,0.3480,0.8846,0.3340,,0.3527,0.8966,0.8906,14.465,15.4022,38.6314,14.525,16.5377,39.1549,38.8932,0.0329,,,, ,, , ,26.9639,,26.9586,,0.6786,84.3957,,,,1.8474E+00,,1.0000E-12,,6.2669,6.2672,0.8907,115.722,4.827,4.847,,,,,,,,,,,,
CalCOFI,2101RL,007,,2101_007u,17-Jan-2021 03:15:04,16-Jan-2021 19:15:04,32.51044,-118.20808,093.3 040.0,093.3,040.0,505.000,509.191,,6.3157,,6.3169,,6.3163,34.2984,,34.3042,34.2914,,34.2934,34.2988,0.3333,,0.3487,0.8851,0.3394,,0.3585,0.9002,0.8927,14.494,15.4325,38.6509,14.760,16.5700,39.3131,38.9820,0.0321,,,, ,, , ,26.9636,,26.9579,,0.6786,84.3957,,,,1.8474E+00,,1.0000E-12,,6.2701,6.2713,0.8907,115.739,4.837,4.926,,,,,,,,,,,,
CalCOFI,2101RL,007,,2101_007u,17-Jan-2021 03:15:05,16-Jan-2021 19:15:05,32.51044,-118.20808,093.3 040.0,093.3,040.0,504.000,508.181,,6.3281,,6.3287,,6.3284,34.2973,,34.3031,34.2904,,34.2924,34.2978,0.3383,,0.3540,0.8884,0.3429,,0.3622,0.9026,0.8955,14.712,15.6607,38.7972,14.911,16.8124,39.4148,39.1060,0.0327,,,, ,, , ,26.9612,,26.9556,,0.6786,84.3957,,,,1.8474E+00,,1.0000E-12,,6.2825,6.2832,0.8907,115.965,4.911,4.978,,,,,,,,,,,,
CalCOFI,2101RL,007,,2101_007u,17-Jan-2021 03:15:05,16-Jan-2021 19:15:05,32.51044,-118.20808,093.3 040.0,093.3,040.0,503.000,507.172,,6.3308,,6.3366,,6.3337,34.2977,,34.3035,34.2900,,34.2920,34.2978,0.3427,,0.3586,0.8914,0.3469,,0.3664,0.9053,0.8984,14.904,15.8617,38.9261,15.084,17.0259,39.5312,39.2287,0.0317,,,, ,, , ,26.9611,,26.9543,,0.6786,84.3957,,,,1.8474E+00,,1.0000E-12,,6.2854,6.2912,0.8907,115.965,4.976,5.036,,,,,,,,,,,,
CalCOFI,2101RL,007,,2101_007u,17-Jan-2021 03:15:06,16-Jan-2021 19:15:06,32.51044,-118.20808,093.3 040.0,093.3,040.0,502.000,506.162,,6.3379,,6.3404,,6.3392,34.2972,,34.3030,34.2896,,34.2916,34.2973,0.3412,,0.3570,0.8904,0.3453,,0.3647,0.9042,0.8973,14.840,15.7947,38.8831,15.016,16.9547,39.4854,39.1843,0.0319,,,, ,, , ,26.9598,,26.9535,,0.6786,84.3957,,,,1.8474E+00,,1.0000E-12,,6.2925,6.2950,0.8907,116.083,4.955,5.014,,,,,,,,,,,,
CalCOFI,2101RL,007,,2101_007u,17-Jan-2021 03:15:07,16-Jan-2021 19:15:07,32.51044,-118.20806,093.3 040.0,093.3,040.0,501.000,505.153,,6.3524,,6.3493,,6.3509,34.2966,,34.3024,34.2895,,34.2915,34.2970,0.3440,,0.3599,0.8923,0.3380,,0.3570,0.8993,0.8958,14.959,15.9193,38.9630,14.701,17.0871,39.2734,39.1182,0.0326,,,, ,, , ,26.9574,,26.9522,,0.6786,84.3957,,,,1.8474E+00,,1.0000E-12,,6.3071,6.3040,0.8907,116.306,4.997,4.910,,,,,,,,,,,,
CalCOFI,2101RL,007,,2101_007u,17-Jan-2021 03:15:08,16-Jan-2021 19:15:08,32.51044,-118.20806,093.3 040.0,093.3,040.0,500.000,504.143,,6.3669,,6.3627,,6.3648,34.2958,,34.3016,34.2888,,34.2908,34.2962,0.3431,,0.3590,0.8917,0.3444,,0.3638,0.9036,0.8977,14.920,15.8785,38.9368,14.978,17.0437,39.4599,39.1984,0.0330,,,, ,, , ,26.9549,,26.9499,,0.6789,84.3898,,,,1.8474E+00,,1.0000E-12,,6.3216,6.3174,0.8907,116.548,4.985,5.004,,,,,,,,,,,,
CalCOFI,2101RL,007,,2101_007u,17-Jan-2021 03:15:09,16-Jan-2021 19:15:09,32.51044,-118.20806,093.3 040.0,093.3,040.0,499.000,503.134,,6.3792,,6.3765,,6.3779,34.2951,,34.3009,34.2883,,34.2903,34.2956,0.3483,,0.3644,0.8951,0.3545,,0.3745,0.9104,0.9028,15.148,16.1171,39.0899,15.418,17.2972,39.7560,39.4230,0.0326,,,, ,, , ,26.9527,,26.9477,,0.6786,84.3957,,,,1.8474E+00,,1.0000E-12,,6.3340,6.3312,0.8907,116.751,5.063,5.152,,,,,,,,,,,,
CalCOFI,2101RL,007,,2101_007u,17-Jan-2021 03:15:09,16-Jan-2021 19:15:09,32.51044,-118.20806,093.3 040.0,093.3,040.0,498.000,502.124,,6.3845,,6.3858,,6.3852,34.2947,,34.3005,34.2878,,34.2898,34.2952,0.3493,,0.3655,0.8958,0.3542,,0.3742,0.9102,0.9030,15.191,16.1621,39.1188,15.404,17.3450,39.7466,39.4327,0.0334,,,, ,, , ,26.9517,,26.9461,,0.6786,84.3957,,,,1.8474E+00,,1.0000E-12,,6.3393,6.3406,0.8907,116.839,5.078,5.149,,,,,,,,,,,,
CalCOFI,2101RL,007,,2101_007u,17-Jan-2021 03:15:10,16-Jan-2021 19:15:10,32.51044,-118.20806,093.3 040.0,093.3,040.0,497.000,501.115,,6.3952,,6.3956,,6.3954,34.2944,,34.3002,34.2872,,34.2892,34.2947,0.3506,,0.3668,0.8967,0.3558,,0.3759,0.9113,0.9040,15.246,16.2197,39.1557,15.471,17.4062,39.7917,39.4737,0.0327,,,, ,, , ,26.9501,,26.9443,,0.6788,84.3920,,,,1.8474E+00,,1.0000E-12,,6.3501,6.3505,0.8907,116.987,5.097,5.173,,,,,,,,,,,,
CalCOFI,2101RL,007,,2101_007u,17-Jan-2021 03:15:11,16-Jan-2021 19:15:11,32.51044,-118.20806,093.3 040.0,093.3,040.0,496.000,500.105,,6.4069,,6.4067,,6.4068,34.2930,,34.2988,34.2863,,34.2883,34.2936,0.3539,,0.3703,0.8989,0.3565,,0.3766,0.9118,0.9054,15.392,16.3725,39.2537,15.505,17.5686,39.8146,39.5342,0.0329,,,, ,, , ,26.9475,,26.9422,,0.6788,84.3920,,,,1.8474E+00,,1.0000E-12,,6.3618,6.3616,0.8907,117.233,5.148,5.185,,,,,,,,,,,,
CalCOFI,2101RL,007,,2101_007u,17-Jan-2021 03:15:12,16-Jan-2021 19:15:12,32.51044,-118.20806,093.3 040.0,093.3,040.0,495.000,499.096,,6.4161,,6.4167,,6.4164,34.2921,,34.2979,34.2853,,34.2873,34.2926,0.3569,,0.3734,0.9009,0.3651,,0.3858,0.9175,0.9092,15.523,16.5097,39.3416,15.877,17.7142,40.0650,39.7033,0.0323,,,, ,, , ,26.9456,,26.9401,,0.6779,84.4103,,,,1.8474E+00,,1.0000E-12,,6.3711,6.3717,0.8907,117.409,5.192,5.310,,,,,,,,,,,,
CalCOFI,2101RL,007,,2101_007u,17-Jan-2021 03:15:13,16-Jan-2021 19:15:13,32.51044,-118.20806,093.3 040.0,093.3,040.0,494.000,498.086,,6.4260,,6.4254,,6.4257,34.2913,,34.2971,34.2841,,34.2861,34.2916,0.3587,,0.3753,0.9021,0.3618,,0.3823,0.9153,0.9087,15.597,16.5871,39.3913,15.733,17.7965,39.9681,39.6797,0.0321,,,, ,, , ,26.9436,,26.9380,,0.6785,84.3979,,,,1.8474E+00,,1.0000E-12,,6.3811,6.3804,0.8907,117.589,5.218,5.263,,,,,,,,,,,,
CalCOFI,2101RL,007,,2101_007u,17-Jan-2021 03:15:14,16-Jan-2021 19:15:14,32.51044,-118.20806,093.3 040.0,093.3,040.0,493.000,497.077,,6.4312,,6.4299,,6.4306,34.2907,,34.2965,34.2838,,34.2858,34.2912,0.3610,,0.3777,0.9037,0.3593,,0.3796,0.9136,0.9087,15.700,16.6950,39.4604,15.627,17.9111,39.8967,39.6786,0.0321,,,, ,, , ,26.9424,,26.9372,,0.6786,84.3957,,,,1.8474E+00,,1.0000E-12,,6.3863,6.3850,0.8907,117.693,5.253,5.228,,,,,,,,,,,,
CalCOFI,2101RL,007,,2101_007u,17-Jan-2021 03:15:15,16-Jan-2021 19:15:15,32.51044,-118.20806,093.3 040.0,093.3,040.0,492.000,496.067,,6.4460,,6.4416,,6.4438,34.2892,,34.2950,34.2823,,34.2843,34.2897,0.3665,,0.3835,0.9074,0.3632,,0.3838,0.9163,0.9119,15.938,16.9441,39.6202,15.797,18.1757,40.0112,39.8157,0.0322,,,, ,, , ,26.9393,,26.9344,,0.6782,84.4036,,,,1.8474E+00,,1.0000E-12,,6.4011,6.3968,0.8907,117.989,5.335,5.287,,,,,,,,,,,,
CalCOFI,2101RL,007,,2101_007u,17-Jan-2021 03:15:16,16-Jan-2021 19:15:16,32.51044,-118.20806,093.3 040.0,093.3,040.0,491.000,495.058,,6.4575,,6.4549,,6.4562,34.2878,,34.2936,34.2809,,34.2829,34.2883,0.3676,,0.3846,0.9081,0.3698,,0.3908,0.9207,0.9144,15.986,16.9943,39.6524,16.084,18.2291,40.2044,39.9284,0.0334,,,, ,, , ,26.9367,,26.9316,,0.6780,84.4087,,,,1.8474E+00,,1.0000E-12,,6.4127,6.4101,0.8907,118.229,5.352,5.384,,,,,,,,,,,,
CalCOFI,2101RL,007,,2101_007u,17-Jan-2021 03:15:17,16-Jan-2021 19:15:17,32.51044,-118.20804,093.3 040.0,093.3,040.0,490.000,494.048,,6.4618,,6.4576,,6.4597,34.2877,,34.2935,34.2808,,34.2828,34.2882,0.3688,,0.3859,0.9089,0.3711,,0.3921,0.9216,0.9153,16.039,17.0498,39.6880,16.137,18.2880,40.2400,39.9640,0.0319,,,, ,, , ,26.9360,,26.9311,,0.6789,84.3892,,,,1.8474E+00,,1.0000E-12,,6.4171,6.4129,0.8907,118.283,5.370,5.402,,,,,,,,,,,,
CalCOFI,2101RL,007,,2101_007u,17-Jan-2021 03:15:17,16-Jan-2021 19:15:17,32.51044,-118.20804,093.3 040.0,093.3,040.0,489.000,493.039,,6.4676,,6.4661,,6.4669,34.2871,,34.2929,34.2803,,34.2823,34.2876,0.3671,,0.3841,0.9078,0.3642,,0.3848,0.9169,0.9124,15.963,16.9703,39.6370,15.838,18.2035,40.0388,39.8379,0.0319,,,, ,, , ,26.9348,,26.9296,,0.6775,84.4195,,,,1.8474E+00,,1.0000E-12,,6.4230,6.4215,0.8907,118.393,5.346,5.303,,,,,,,,,,,,
CalCOFI,2101RL,007,,2101_007u,17-Jan-2021 03:15:18,16-Jan-2021 19:15:18,32.51044,-118.20804,093.3 040.0,093.3,040.0,488.000,492.029,,6.4734,,6.4732,,6.4733,34.2867,,34.2925,34.2798,,34.2818,34.2872,0.3663,,0.3833,0.9072,0.3690,,0.3899,0.9202,0.9137,15.931,16.9368,39.6155,16.047,18.1679,40.1795,39.8975,0.0322,,,, ,, , ,26.9337,,26.9283,,0.6777,84.4154,,,,1.8474E+00,,1.0000E-12,,6.4289,6.4286,0.8907,118.485,5.336,5.374,,,,,,,,,,,,
CalCOFI,2101RL,007,,2101_007u,17-Jan-2021 03:15:19,16-Jan-2021 19:15:19,32.51044,-118.20804,093.3 040.0,093.3,040.0,487.000,491.020,,6.4758,,6.4767,,6.4763,34.2864,,34.2922,34.2792,,34.2812,34.2867,0.3718,,0.3890,0.9109,0.3769,,0.3983,0.9255,0.9182,16.168,17.1849,39.7746,16.392,18.4315,40.4117,40.0932,0.0321,,,, ,, , ,26.9331,,26.9273,,0.6775,84.4193,,,,1.8474E+00,,1.0000E-12,,6.4314,6.4323,0.8907,118.527,5.415,5.490,,,,,,,,,,,,
CalCOFI,2101RL,007,,2101_007u,17-Jan-2021 03:15:20,16-Jan-2021 19:15:20,32.51044,-118.20803,093.3 040.0,093.3,040.0,486.000,490.010,,6.4775,,6.4798,,6.4787,34.2860,,34.2918,34.2789,,34.2809,34.2864,0.3717,,0.3889,0.9108,0.3704,,0.3914,0.9211,0.9160,16.165,17.1817,39.7725,16.108,18.4281,40.2205,39.9965,0.0325,,,, ,, , ,26.9326,,26.9267,,0.6775,84.4193,,,,1.8474E+00,,1.0000E-12,,6.4331,6.4354,0.8907,118.566,5.415,5.396,,,,,,,,,,,,
CalCOFI,2101RL,007,,2101_007u,17-Jan-2021 03:15:20,16-Jan-2021 19:15:20,32.51044,-118.20802,093.3 040.0,093.3,040.0,485.000,489.001,,6.4799,,6.4807,,6.4803,34.2859,,34.2917,34.2789,,34.2809,34.2863,0.3688,,0.3859,0.9089,0.3767,,0.3981,0.9253,0.9171,16.037,17.0477,39.6866,16.381,18.2858,40.4043,40.0455,0.0329,,,, ,, , ,26.9322,,26.9265,,0.6775,84.4193,,,,1.8474E+00,,1.0000E-12,,6.4356,6.4364,0.8907,118.587,5.372,5.487,,,,,,,,,,,,
CalCOFI,2101RL,007,,2101_007u,17-Jan-2021 03:15:21,16-Jan-2021 19:15:21,32.51044,-118.20802,093.3 040.0,093.3,040.0,484.000,487.992,,6.4812,,6.4832,,6.4822,34.2857,,34.2915,34.2787,,34.2807,34.2861,0.3737,,0.3910,0.9122,0.3833,,0.4051,0.9298,0.9210,16.253,17.2738,39.8316,16.671,18.5260,40.5995,40.2156,0.0329,,,, ,, , ,26.9319,,26.9260,,0.6775,84.4193,,,,1.8474E+00,,1.0000E-12,,6.4370,6.4390,0.8907,118.609,5.444,5.585,,,,,,,,,,,,
CalCOFI,2101RL,007,,2101_007u,17-Jan-2021 03:15:22,16-Jan-2021 19:15:22,32.51044,-118.20802,093.3 040.0,093.3,040.0,483.000,486.982,,6.4858,,6.4865,,6.4862,34.2849,,34.2907,34.2782,,34.2802,34.2855,0.3764,,0.3938,0.9140,0.3756,,0.3969,0.9246,0.9193,16.367,17.3932,39.9081,16.335,18.6528,40.3733,40.1407,0.0316,,,, ,, , ,26.9306,,26.9252,,0.6775,84.4193,,,,1.8474E+00,,1.0000E-12,,6.4417,6.4424,0.8907,118.718,5.483,5.472,,,,,,,,,,,,
CalCOFI,2101RL,007,,2101_007u,17-Jan-2021 03:15:22,16-Jan-2021 19:15:22,32.51044,-118.20802,093.3 040.0,093.3,040.0,482.000,485.973,,6.4890,,6.4892,,6.4891,34.2845,,34.2903,34.2776,,34.2796,34.2850,0.3714,,0.3886,0.9106,0.3730,,0.3942,0.9229,0.9168,16.152,17.1681,39.7638,16.224,18.4137,40.2986,40.0312,0.0327,,,, ,, , ,26.9299,,26.9244,,0.6775,84.4193,,,,1.8474E+00,,1.0000E-12,,6.4449,6.4452,0.8907,118.773,5.411,5.435,,,,,,,,,,,,
CalCOFI,2101RL,007,,2101_007u,17-Jan-2021 03:15:23,16-Jan-2021 19:15:23,32.51044,-118.20802,093.3 040.0,093.3,040.0,481.000,484.963,,6.4904,,6.4904,,6.4904,34.2844,,34.2902,34.2773,,34.2793,34.2848,0.3729,,0.3902,0.9116,0.3781,,0.3996,0.9263,0.9190,16.218,17.2372,39.8081,16.443,18.4871,40.4460,40.1271,0.0327,,,, ,, , ,26.9296,,26.9240,,0.6768,84.4349,,,,1.8474E+00,,1.0000E-12,,6.4465,6.4464,0.8907,118.790,5.434,5.509,,,,,,,,,,,,
CalCOFI,2101RL,007,,2101_007u,17-Jan-2021 03:15:24,16-Jan-2021 19:15:24,32.51044,-118.20802,093.3 040.0,093.3,040.0,480.000,483.954,,6.4955,,6.4930,,6.4943,34.2841,,34.2899,34.2771,,34.2791,34.2845,0.3755,,0.3929,0.9134,0.3790,,0.4005,0.9269,0.9202,16.332,17.3565,39.8846,16.482,18.6138,40.4723,40.1785,0.0321,,,, ,, , ,26.9286,,26.9235,,0.6775,84.4192,,,,1.8474E+00,,1.0000E-12,,6.4516,6.4491,0.8907,118.867,5.473,5.522,,,,,,,,,,,,
CalCOFI,2101RL,007,,2101_007u,17-Jan-2021 03:15:25,16-Jan-2021 19:15:25,32.51044,-118.20802,093.3 040.0,093.3,040.0,479.000,482.944,,6.4982,,6.5012,,6.4997,34.2836,,34.2894,34.2764,,34.2784,34.2839,0.3786,,0.3961,0.9155,0.3767,,0.3981,0.9253,0.9204,16.465,17.4958,39.9739,16.383,18.7617,40.4056,40.1898,0.0317,,,, ,, , ,26.9279,,26.9218,,0.6774,84.4224,,,,1.8474E+00,,1.0000E-12,,6.4544,6.4574,0.8907,118.927,5.518,5.490,,,,,,,,,,,,
CalCOFI,2101RL,007,,2101_007u,17-Jan-2021 03:15:26,16-Jan-2021 19:15:26,32.51044,-118.20802,093.3 040.0,093.3,040.0,478.000,481.935,,6.5024,,6.5049,,6.5037,34.2833,,34.2891,34.2761,,34.2781,34.2836,0.3749,,0.3923,0.9130,0.3816,,0.4033,0.9286,0.9208,16.305,17.3283,39.8665,16.597,18.5838,40.5497,40.2081,0.0316,,,, ,, , ,26.9271,,26.9211,,0.6767,84.4356,,,,1.8474E+00,,1.0000E-12,,6.4587,6.4612,0.8907,118.993,5.464,5.562,,,,,,,,,,,,
CalCOFI,2101RL,007,,2101_007u,17-Jan-2021 03:15:27,16-Jan-2021 19:15:27,32.51044,-118.20802,093.3 040.0,093.3,040.0,477.000,480.926,,6.5085,,6.5071,,6.5078,34.2829,,34.2887,34.2760,,34.2780,34.2834,0.3744,,0.3917,0.9127,0.3786,,0.4001,0.9266,0.9197,16.284,17.3063,39.8524,16.465,18.5605,40.4608,40.1566,0.0320,,,, ,, , ,26.9260,,26.9207,,0.6771,84.4271,,,,1.8474E+00,,1.0000E-12,,6.4649,6.4634,0.8907,119.087,5.458,5.518,,,,,,,,,,,,
CalCOFI,2101RL,007,,2101_007u,17-Jan-2021 03:15:28,16-Jan-2021 19:15:28,32.51044,-118.20802,093.3 040.0,093.3,040.0,476.000,479.916,,6.5101,,6.5112,,6.5107,34.2829,,34.2887,34.2760,,34.2780,34.2834,0.3744,,0.3917,0.9127,0.3813,,0.4030,0.9284,0.9206,16.282,17.3042,39.8511,16.584,18.5582,40.5409,40.1960,0.0314,,,, ,, , ,26.9257,,26.9202,,0.6764,84.4428,,,,1.8474E+00,,1.0000E-12,,6.4666,6.4676,0.8907,119.097,5.458,5.559,,,,,,,,,,,,
CalCOFI,2101RL,007,,2101_007u,17-Jan-2021 03:15:29,16-Jan-2021 19:15:29,32.51044,-118.20802,093.3 040.0,093.3,040.0,475.000,478.907,,6.5091,,6.5122,,6.5107,34.2831,,34.2889,34.2759,,34.2779,34.2834,0.3746,,0.3920,0.9128,0.3830,,0.4048,0.9296,0.9212,16.290,17.3126,39.8565,16.658,18.5671,40.5908,40.2237,0.0326,,,, ,, , ,26.9260,,26.9199,,0.6764,84.4428,,,,1.8474E+00,,1.0000E-12,,6.4657,6.4687,0.8907,119.052,5.460,5.584,,,,,,,,,,,,
CalCOFI,2101RL,007,,2101_007u,17-Jan-2021 03:15:30,16-Jan-2021 19:15:30,32.51043,-118.20801,093.3 040.0,093.3,040.0,474.000,477.898,,6.5166,,6.5179,,6.5173,34.2826,,34.2884,34.2754,,34.2774,34.2829,0.3770,,0.3945,0.9144,0.3832,,0.4050,0.9297,0.9221,16.394,17.4214,39.9263,16.666,18.6828,40.5961,40.2612,0.0313,,,, ,, , ,26.9246,,26.9188,,0.6764,84.4428,,,,1.8474E+00,,1.0000E-12,,6.4732,6.4745,0.8907,119.181,5.496,5.587,,,,,,,,,,,,
CalCOFI,2101RL,007,,2101_007u,17-Jan-2021 03:15:30,16-Jan-2021 19:15:30,32.51042,-118.20800,093.3 040.0,093.3,040.0,473.000,476.888,,6.5165,,6.5186,,6.5176,34.2825,,34.2883,34.2754,,34.2774,34.2829,0.3817,,0.3994,0.9176,0.3867,,0.4087,0.9321,0.9249,16.602,17.6392,40.0659,16.819,18.9141,40.6991,40.3825,0.0326,,,, ,, , ,26.9246,,26.9186,,0.6766,84.4384,,,,1.8474E+00,,1.0000E-12,,6.4732,6.4753,0.8907,119.169,5.566,5.638,,,,,,,,,,,,
CalCOFI,2101RL,007,,2101_007u,17-Jan-2021 03:15:31,16-Jan-2021 19:15:31,32.51042,-118.20800,093.3 040.0,093.3,040.0,472.000,475.879,,6.5183,,6.5196,,6.5190,34.2824,,34.2882,34.2754,,34.2774,34.2828,0.3797,,0.3973,0.9162,0.3816,,0.4033,0.9286,0.9224,16.513,17.5460,40.0061,16.595,18.8151,40.5483,40.2772,0.0325,,,, ,, , ,26.9242,,26.9185,,0.6767,84.4367,,,,1.8474E+00,,1.0000E-12,,6.4751,6.4763,0.8907,119.188,5.536,5.563,,,,,,,,,,,,
CalCOFI,2101RL,007,,2101_007u,17-Jan-2021 03:15:32,16-Jan-2021 19:15:32,32.51042,-118.20800,093.3 040.0,093.3,040.0,471.000,474.869,,6.5197,,6.5207,,6.5202,34.2823,,34.2881,34.2752,,34.2772,34.2827,0.3783,,0.3958,0.9153,0.3815,,0.4032,0.9286,0.9220,16.450,17.4801,39.9639,16.590,18.7451,40.5450,40.2545,0.0325,,,, ,, , ,26.9240,,26.9183,,0.6764,84.4428,,,,1.8474E+00,,1.0000E-12,,6.4765,6.4776,0.8907,119.201,5.515,5.562,,,,,,,,,,,,
CalCOFI,2101RL,007,,2101_007u,17-Jan-2021 03:15:33,16-Jan-2021 19:15:33,32.51042,-118.20800,093.3 040.0,093.3,040.0,470.000,473.860,,6.5235,,6.5223,,6.5229,34.2822,,34.2880,34.2752,,34.2772,34.2826,0.3843,,0.4021,0.9193,0.3815,,0.4032,0.9286,0.9240,16.713,17.7554,40.1404,16.592,19.0375,40.5463,40.3434,0.0321,,,, ,, , ,26.9234,,26.9180,,0.6768,84.4345,,,,1.8474E+00,,1.0000E-12,,6.4805,6.4793,0.8907,119.246,5.604,5.563,,,,,,,,,,,,
CalCOFI,2101RL,007,,2101_007u,17-Jan-2021 03:15:34,16-Jan-2021 19:15:34,32.51042,-118.20800,093.3 040.0,093.3,040.0,469.000,472.851,,6.5251,,6.5270,,6.5261,34.2821,,34.2879,34.2749,,34.2769,34.2824,0.3893,,0.4073,0.9227,0.3879,,0.4100,0.9329,0.9278,16.931,17.9836,40.2867,16.869,19.2799,40.7328,40.5098,0.0323,,,, ,, , ,26.9231,,26.9171,,0.6769,84.4332,,,,1.8474E+00,,1.0000E-12,,6.4821,6.4840,0.8907,119.258,5.677,5.657,,,,,,,,,,,,
CalCOFI,2101RL,007,,2101_007u,17-Jan-2021 03:15:35,16-Jan-2021 19:15:35,32.51042,-118.20800,093.3 040.0,093.3,040.0,468.000,471.841,,6.5340,,6.5371,,6.5356,34.2817,,34.2875,34.2743,,34.2763,34.2819,0.3944,,0.4127,0.9261,0.3903,,0.4125,0.9345,0.9303,17.152,18.2149,40.4351,16.972,19.5257,40.8021,40.6186,0.0323,,,, ,, , ,26.9216,,26.9153,,0.6768,84.4332,,,,1.8474E+00,,1.0000E-12,,6.4911,6.4942,0.8907,119.394,5.752,5.692,,,,,,,,,,,,
CalCOFI,2101RL,007,,2101_007u,17-Jan-2021 03:15:36,16-Jan-2021 19:15:36,32.51042,-118.20800,093.3 040.0,093.3,040.0,467.000,470.832,,6.5447,,6.5468,,6.5458,34.2809,,34.2867,34.2735,,34.2755,34.2811,0.3947,,0.4130,0.9263,0.3929,,0.4153,0.9362,0.9313,17.167,18.2306,40.4451,17.087,19.5424,40.8795,40.6623,0.0322,,,, ,, , ,26.9196,,26.9134,,0.6775,84.4203,,,,1.8474E+00,,1.0000E-12,,6.5019,6.5040,0.8907,119.581,5.759,5.732,,,,,,,,,,,,
CalCOFI,2101RL,007,,2101_007u,17-Jan-2021 03:15:37,16-Jan-2021 19:15:37,32.51042,-118.20800,093.3 040.0,093.3,040.0,466.000,469.823,,6.5553,,6.5553,,6.5553,34.2795,,34.2853,34.2724,,34.2744,34.2799,0.3986,,0.4171,0.9289,0.3996,,0.4224,0.9407,0.9348,17.335,18.4065,40.5579,17.379,19.7292,41.0761,40.8170,0.0315,,,, ,, , ,26.9170,,26.9114,,0.6775,84.4193,,,,1.8474E+00,,1.0000E-12,,6.5125,6.5126,0.8907,119.818,5.817,5.831,,,,,,,,,,,,
CalCOFI,2101RL,007,,2101_007u,17-Jan-2021 03:15:38,16-Jan-2021 19:15:38,32.51042,-118.20800,093.3 040.0,093.3,040.0,465.000,468.813,,6.5631,,6.5639,,6.5635,34.2784,,34.2842,34.2719,,34.2739,34.2791,0.4032,,0.4219,0.9320,0.4085,,0.4319,0.9467,0.9394,17.536,18.6169,40.6928,17.766,19.9527,41.3366,41.0147,0.0319,,,, ,, , ,26.9151,,26.9099,,0.6772,84.4249,,,,1.8474E+00,,1.0000E-12,,6.5204,6.5212,0.8907,119.991,5.885,5.962,,,,,,,,,,,,